Regional Weather Roundup
Issued by NWS Upton, NY

Home | Current Version | Previous Version | Text Only | Print | Product List | Glossary On
Versions: 1 2 3 4 5 6 7 8 9 10 11 12 13 14 15 16 17 18 19 20 21 22 23 24 25 26 27 28 29 30 31 32 33 34 35 36 37 38 39 40 41 42 43 44 45 46 47 48 49 50
000
ASUS41 KOKX 221205
RWROKX

REGIONAL WEATHER ROUNDUP
NATIONAL WEATHER SERVICE NEW YORK NY
800 AM EDT FRI AUG 22 2014

NOTE: "FAIR" INDICATES FEW OR NO CLOUDS BELOW 12,000 FEET WITH NO
SIGNIFICANT WEATHER AND/OR OBSTRUCTIONS TO VISIBILITY.

NYZ071-072-176-178-NJZ106-104-221300-
NEW YORK CITY METRO AREA


CITY           SKY/WX    TMP DP  RH WIND       PRES   REMARKS
CENTRAL PARK   PTSUNNY   68  64  87 VRB6      30.05R
LAGUARDIA APRT MOSUNNY   69  64  84 E8        30.02R
KENNEDY INTL   PTSUNNY   70  64  83 E8        30.03S
NEWARK/LIBERTY CLOUDY    70  66  87 E5        30.02R
BRNX BOT. GARD   N/A     68  64  88 E3        30.06R
TETERBORO      CLOUDY    70  63  78 E6        30.02R
$$

NYZ177-179-078>081-221300-
LONG ISLAND NEW YORK

CITY           SKY/WX    TMP DP  RH WIND       PRES   REMARKS
FARMINGDALE    SUNNY     66  59  78 E7        30.03S
ISLIP          MOSUNNY   67  59  75 E9        30.02S
SHIRLEY        SUNNY     66  63  90 CALM      30.05R
WESTHAMPTON    MOSUNNY   65  62  90 NE5       30.05S
MONTAUK POINT    N/A     67  62  84 VRB7      30.07R
$$

NYZ052-065-067-221300-
HUDSON VALLEY

CITY           SKY/WX    TMP DP  RH WIND       PRES   REMARKS
WHITE PLAINS   PTSUNNY   66  62  87 E6        30.04R
NEWBURGH       CLOUDY    66  66 100 CALM      30.05R
MONTGOMERY     CLOUDY    66  63  90 CALM      30.03S
POUGHKEEPSIE   CLOUDY    69  63  81 CALM      30.03R
ALBANY         CLOUDY    67  63  87 S6        30.03S
$$

NJZ001-105-106-008-010-013-015-019>022-104-221300-
NEW JERSEY

CITY           SKY/WX    TMP DP  RH WIND       PRES   REMARKS
NEWARK/LIBERTY CLOUDY    70  66  87 E5        30.02R
TETERBORO      CLOUDY    70  63  78 E6        30.02R
CALDWELL       CLOUDY    67  64  90 CALM      30.03S
MORRISTOWN     CLOUDY    68  66  94 CALM      30.03R
SOMERVILLE     CLOUDY    67  64  90 CALM      30.01R
LINDEN         CLOUDY    73  69  87 E5        30.04R
SUSSEX         CLOUDY    67  64  90 CALM        N/A
ANDOVER          N/A     65  63  93 CALM      30.04R
TRENTON        MOSUNNY   68  64  87 NE3       30.01S
MILLVILLE      CLOUDY    70  68  93 NE7       29.98S
ATLANTIC CITY  CLOUDY    70  69  97 E7        29.99R
WRIGHTSTOWN    SUNNY     67  67 100 NE3       29.99S
TOMS RIVER     MOSUNNY   70  66  88 CALM      30.01S
BELMAR         SUNNY     70  64  83 E6        30.01S
$$

PAZ047>061-062-071-221300-
EASTERN PENNSYLVANIA

CITY           SKY/WX    TMP DP  RH WIND       PRES   REMARKS
PHILADELPHIA   CLOUDY    69  65  86 E8        30.01R
ALLENTOWN      CLOUDY    68  63  84 E5        30.03R
SCRANTON       PTSUNNY   68  63  84 SE3       30.02R
$$

CTZ002-004>006-009-010-012-RIZ004-006-007-MAZ004-011-015-221300-
SOUTHERN NEW ENGLAND
 IN CT

CITY           SKY/WX    TMP DP  RH WIND       PRES   REMARKS
BRADLEY INTL   CLOUDY    65  59  81 NE5       30.07R
HARTFORD       CLOUDY    65  58  78 NE6       30.06S
DANBURY        CLOUDY    65  61  87 E6        30.06S
WTRBRY/OXFORD  CLOUDY    64  57  77 E5        30.08S
BRIDGEPORT     MOSUNNY   69  62  78 NE10      30.05R
MERIDEN        CLOUDY    66  62  87 N5        30.06S
NEW HAVEN      MOSUNNY   68  59  73 E9        30.05S
CHESTER        PTSUNNY   63  63 100 NE5       30.08R
GROTON         CLOUDY    65  62  90 NE6       30.06R
WILLIMANTIC    CLOUDY    64  59  83 NE6       30.08S

 IN RI

CITY           SKY/WX    TMP DP  RH WIND       PRES   REMARKS
PROVIDENCE     CLOUDY    66  63  90 NE10      30.08S
BLOCK ISLAND   CLOUDY    66  63  88 NE7       30.06R
WESTERLY       CLOUDY    65  61  87 N6        30.07R

 IN MA

CITY           SKY/WX    TMP DP  RH WIND       PRES   REMARKS
BOSTON         CLOUDY    64  61  90 N9        30.09S
WORCESTER      CLOUDY    58  57  97 NE9       30.10F
WESTFIELD      CLOUDY    65  61  87 NE3       30.08R
PROVINCETOWN   PTSUNNY   70  64  83 MISG      30.08F
NANTUCKET      CLOUDY    63  63 100 NE10      30.05F FOG
$$

ANZ330-335-338-340-345-350-353-355-221300-
COASTAL MARINE OBSERVATIONS


STATION/POSITION TIME  SKY/WX   TEMP    WIND        PRES    VSBY  WAVE
                                AIR SEA DIR/SP/G                  HT/PER
                 (UTC)          (F)     (DEG/KT/KT) (MB)    (MI)  (FT/S)
NY HARB ENTRANCE NOT AVBL
4S FIRE IS       NOT AVBL
23SW MTP         1200            68 69              1016.7          4/ 8
HUDSON CANYON    1200            70 72   40/ 16/ 17 1015.7          3/ 7
EXECUTION ROCKS  1200            69 73   90/ 10/ 14   N/A
WESTERN LI SOUND 1200            68     100/ 10/ 12   N/A           1/ 3
CENTRAL LI SOUND 1100            68 72   70/ 14/ 17   N/A           2/ 2
EASTERN LI SOUND 1100            67 69   50/ 12/ 16   N/A
ROBBINS REEF     1200            69     100/  9/ 10   N/A
$$


>>>>>>>>>>>>>>>>>>>>>>>>>>>> KEY <<<<<<<<<<<<<<<<<<<<<<<<<<<
>                                                          <
>     SKY/WX - SKY CONDITION/PRESENT WEATHER               <
>     TMP    - TEMPERATURE IN FAHRENHEIT                   <
>     DP     - DEWPOINT IN FAHRENHEIT                      <
>     RH     - RELATIVE HUMIDITY IN PERCENT                <
>     WIND   - DIRECTION AND SPEED IN MPH                  <
>     PRES   - MEAN SEA LEVEL PRESSURE IN INCHES OF HG     <
>     WCI    - WIND CHILL INDEX                            <
>     VSB    - VISIBILITY IN MILES                         <
>     HX     - HEAT INDEX                                  <
>     TC     - TEMPERATURE IN CELSIUS                      <
>     VRB    - VARIABLE WIND DIRECTION                     <
>                                                          <
>>>>>>>>>>>>>>>>>>>>>>>>>>>> KEY <<<<<<<<<<<<<<<<<<<<<<<<<<<




USA.gov is the U.S. government's official web portal to all federal, state and local government web resources and services.